This is the latest recevied weather packets stored in our database for station/object KC3SOZ. If no packets are shown the sender has not sent any weather packets the latest 10 day(s).
| Time | Temp. | Humidity | Pressure | Rain* | Wind** | Luminosity | Snow |
|---|---|---|---|---|---|---|---|
| 1778270251 | 15.56° C | 56% | 1011.9 hPa | 0 mm | - | 399 W/m² | - |
| 1778269947 | 15.56° C | 55% | 1012.2 hPa | 0 mm | - | 153 W/m² | - |
| 1778269644 | 16.11° C | 54% | 1012.3 hPa | 0 mm | - | 186 W/m² | - |
| 1778269341 | 16.67° C | 54% | 1012.1 hPa | 0 mm | - | 151 W/m² | - |
| 1778269038 | 16.67° C | 54% | 1012 hPa | 0 mm | - | 205 W/m² | - |
| 1778268734 | 16.11° C | 54% | 1012.1 hPa | 0 mm | - | 882 W/m² | - |
| 1778268431 | 16.11° C | 54% | 1011.8 hPa | 0 mm | - | 265 W/m² | - |
| 1778268128 | 16.67° C | 54% | 1012 hPa | 0 mm | - | 276 W/m² | - |
| 1778267826 | 16.67° C | 52% | 1012.3 hPa | 0 mm | - | 801 W/m² | - |
| 1778267522 | 16.11° C | 59% | 1012.6 hPa | 0 mm | - | 295 W/m² | - |
| 1778267219 | 16.67° C | 57% | 1012.5 hPa | 0 mm | - | 645 W/m² | - |
| 1778266915 | 16.11° C | 55% | 1012.5 hPa | 0 mm | - | 667 W/m² | - |
| 1778266612 | 15.56° C | 55% | 1012.5 hPa | 0 mm | - | 803 W/m² | - |
| 1778266310 | 15° C | 57% | 1012.6 hPa | 0 mm | - | 171 W/m² | - |
| 1778266007 | 15° C | 55% | 1012.6 hPa | 0 mm | - | 164 W/m² | - |
| 1778265704 | 15° C | 54% | 1012.6 hPa | 0 mm | - | 167 W/m² | - |
| 1778265401 | 15.56° C | 53% | 1012.5 hPa | 0 mm | - | 236 W/m² | - |
| 1778265097 | 15.56° C | 53% | 1012.5 hPa | 0 mm | - | 252 W/m² | - |
| 1778264793 | 15.56° C | 51% | 1012.3 hPa | 0 mm | - | 315 W/m² | - |
| 1778264490 | 15.56° C | 56% | 1012.7 hPa | 0 mm | - | 344 W/m² | - |
| 1778264185 | 15.56° C | 55% | 1012.5 hPa | 0 mm | - | 498 W/m² | - |
| 1778263883 | 15.56° C | 53% | 1012.5 hPa | 0 mm | - | 352 W/m² | - |
| 1778263579 | 15° C | 56% | 1012.5 hPa | 0 mm | - | 269 W/m² | - |
| 1778263276 | 15° C | 55% | 1012.7 hPa | 0 mm | - | 262 W/m² | - |
| 1778262973 | 15.56° C | 56% | 1012.6 hPa | 0 mm | - | 294 W/m² | - |
* Rain latest hour (hover to see other rain measurements)
** Current wind speed in m/s (hover to see current wind gust speed)